User: anonymous   Login
Location: Prairie Dale
(45.6972°N, 104.5033°W)
Time: 07:52:12
(UTC+00:00)
Language:

THOR BURNER 2A DEB - Orbit

View from above orbital plane
View from above orbital plane
View from above satellite
View from above satellite

Ground track
Ground track

The orbit data is extracted from the following two-line orbital elements,

1 28592U 74015D   22330.63008444  .00015522  00000-0  18333-2 0  9997
2 28592  99.0388 220.6943 0054671 205.8026 154.0456 14.83710763948216
Epoch (UTC): 26 November 2022 15:07:19
Eccentricity: 0.0054671
inclination: 99.0388°
perigee height: 579 km
apogee height: 656 km
right ascension of ascending node: 220.6943°
argument of perigee: 205.8026°
revolutions per day: 14.83710763
mean anomaly at epoch: 154.0456°
orbit number at epoch: 94821

The dashed part of the orbit path shows where the satellite is in the earth's shadow,  

DLR